Location: Mount Cross
(36.6390°N, 79.4878°W)
Time: 00:52:42
(UTC+00:00)

Vanguard 2 Rocket - Pass Details

Date: 24 March 2023
Orbit: 554 x 3314 km, 32.9° (Epoch: 08 June)

Event Time Altitude Azimuth Distance (km) Brightness Sun altitude
Rises 02:25:00 0° 259° (W) 4,033 10.8 -33.7°
Reaches altitude 10° 02:27:16 10° 257° (WSW) 3,330 10.2 -34.1°
Maximum altitude 02:36:03 74° 174° (S) 1,983 8.2 -35.6°
Enters shadow 02:37:03 71° 140° (SE) 2,079 8.3 -35.8°
